Regional Weather Roundup
Issued by NWS Lake Charles, LA

Home | Current Version | Previous Version | Text Only | Print | Product List | Glossary On
Versions: 1 2 3 4 5 6 7 8 9 10 11 12 13 14 15 16 17 18 19 20 21 22 23 24 25 26 27 28 29 30 31 32 33 34 35 36 37 38 39 40 41 42 43 44 45 46 47 48 49 50
849
ASUS44 KLCH 220710
RWRLCH
REGIONAL WEATHER ROUNDUP
NATIONAL WEATHER SERVICE LAKE CHARLES LA
100 AM CST WED FEB 22 2017

Note: "fair" indicates few or no clouds below 12,000 feet with no
significant weather and/or obstructions to visibility.


ACROSS SOUTHEAST TEXAS

CITY           SKY/WX    TMP DP  RH WIND       PRES   REMARKS
BEAUMONT       PTCLDY    58  52  80 W6        29.88F
BEAUMONT CITY  FAIR      58  51  78 NW5       29.90S
ORANGE         SUNNY     60  55  83 NW5       29.90S
JASPER         PTCLDY    57  55  93 W3        29.91S
$$

ACROSS CENTRAL LOUISIANA

CITY           SKY/WX    TMP DP  RH WIND       PRES   REMARKS
LEESVILLE      CLOUDY    61  57  86 CALM      29.86F
FULLERTON      CLOUDY    62  57  83 CALM      29.84S
ALEXANDRIA INT LGT RAIN  60  58  92 NW9       29.85S FOG
ESLER FIELD    LGT RAIN  59  59 100 CALM      29.86S
DERIDDER       CLOUDY    60  59  96 CALM      29.89S
OAKDALE        CLOUDY    61  56  85 CALM      29.86F
OPELOUSAS      CLOUDY    58  58  97 MISG      29.86S
$$

ACROSS SOUTHWEST AND SOUTH CENTRAL LOUISIANA

CITY           SKY/WX    TMP DP  RH WIND       PRES   REMARKS
SULPHUR        MOSUNNY   59  55  87 NW3       29.88S
LAKE CHARLES   CLOUDY    60  58  92 W3        29.87S
CHENNAULT INT  CLOUDY    62  57  85 W5        29.87S
CAMERON PHI    PTSUNNY   63  59  88 W6        29.86F
DEQUINCY       FAIR      55  54  94 CALM      29.88S
JENNINGS       CLOUDY    60  58  92 W3        29.87F
LAFAYETTE      CLOUDY    63  58  83 W3        29.86S
NEW IBERIA     MOCLDY    61  55  81 W8        29.86F
ABBEVILLE      CLOUDY    61  61 100 W5        29.86F
PATTERSON      MOCLDY    56  55  97 SW6       29.86F
SALT POINT       N/A     61  32  33 W3        29.85F
$$

SELECTED SITES ACROSS THE REGION

CITY           SKY/WX    TMP DP  RH WIND       PRES   REMARKS
HOUSTON BUSH   CLEAR     59  49  69 W7        29.91F
HOUSTON HOBBY  CLEAR     59  50  72 W8        29.91F
GALVESTON      PTCLDY    65  55  70 W8        29.91F
COLLEGE STAT   CLEAR     56  47  71 NW6       29.94S
CONROE         CLEAR     49  48  97 CALM      29.92F
HUNTSVILLE     CLEAR     56  48  74 CALM      29.92F
LUFKIN         CLEAR     52  51  97 CALM      29.90F
SHREVEPORT     CLOUDY    63  57  81 N3        29.87S
MONROE         CLOUDY    59  58  96 CALM      29.87S
NATCHEZ MS     CLOUDY    57  54  88 CALM      29.86S
BATON ROUGE    CLOUDY    59  55  87 CALM      29.84F
N.O. INTL ARPT CLEAR     55  54  96 NW5       29.84F
SLIDELL        PTCLDY    53  51  93 CALM      29.82F
$$

MARINE REPORTS

STATION/POSITION TIME  SKY/WX   TEMP    WIND        PRES    VSBY
                                AIR SEA DIR/SP/G
                 (UTC)          (F)     (DEG/KT/KT) (MB)    (MI)
BUOY 30 S HIGH I 0650            67 65  290/  8/ 10 1012.4F
WVE H/P(F/S)=  2/ 6

SEA RIM ST PARK  0600            59     290/  6/  7 1012.8F
PORT ARTHUR      0648                   310/  5/ 11 1011.9F
SABINE PASS N    0648                   280/  4/  7 1013.3F
TEXAS POINT      NOT AVBL
CALCASIEU PASS   0648                   280/  7/  8   N/A
LK CHARLES BEACH 0648                               1011.8F
MARSH ISLAND     0600            63                   N/A
FRESH WATER LOCK 0648                   240/  6/  7 1011.8F
AMERADA PASS     0648                   260/  2/  4 1010.9F
$$




USA.gov is the U.S. government's official web portal to all federal, state and local government web resources and services.